Flag for Turkey Weather past 2 weeks in Mersin, Turkey

64 °F

Passing clouds.

Feels Like: 64 °F
Forecast: 60 / 82 °F
Wind: No wind

Location: Adana / Sakirpasa

Current Time: Oct 9, 2015 at 6:42:34 AM

Latest Report: Oct 9, 2015 at 5:50 AM

Visibility: N/A

Pressure: 29.86 "Hg

Humidity: 78%

Dew point: 57 °F

Location of MersinLocation

Historic Weather in Mersin — Graph


Mersin temperature yesterday

Maximum temperature yesterday: 82 °F (at 12:20 PM)
Minimum temperature yesterday: 64 °F (at 3:20 AM)
Average temperature yesterday: 73 °F

Past Weeks' High & Low Weather Summary

High91 °F (Oct 3, 2:20 PM)94% (Sep 30, 6:50 AM)30.12 "Hg (Sep 30, 6:50 AM)
Low64 °F (Oct 7, 5:20 AM)27% (Oct 4, 3:50 PM)29.62 "Hg (Oct 7, 12:50 AM)
Average77 °F68%29.89 "Hg
* Reported Sep 24 5:20 AM — Oct 9 5:20 AM, Mersin, Weather by CustomWeather, © 2015

Note: Actual official high and low records may vary slightly from our data, if they occured in-between our weather recording intervals... More about our weather records


Mersin weather history for previous 24 hours

Time TempWeatherWind HumidityBarometerVisibility
5:20 AM
Fri, Oct 9
64 °FPassing clouds.No wind78%29.86 "HgN/A
4:50 AM64 °FPassing clouds.No wind78%29.86 "HgN/A
4:20 AM64 °FPassing clouds.No wind78%29.86 "HgN/A
3:50 AM68 °FPassing clouds.No wind64%29.86 "HgN/A
3:20 AM66 °FPassing clouds.5 mph68%29.86 "HgN/A
2:50 AM68 °FPassing clouds.6 mph64%29.89 "HgN/A
2:20 AM68 °FPassing clouds.7 mph64%29.89 "HgN/A
1:50 AM70 °FPassing clouds.10 mph60%29.89 "HgN/A
1:20 AM70 °FPassing clouds.10 mph60%29.89 "HgN/A
12:50 AM70 °FPassing clouds.9 mph57%29.89 "HgN/A
12:20 AM70 °FPassing clouds.10 mph60%29.86 "HgN/A
11:50 PM
Thu, Oct 8
72 °FPassing clouds.9 mph69%29.89 "HgN/A
11:20 PM72 °FPartly cloudy.7 mph69%29.86 "HgN/A
10:50 PM70 °FPartly cloudy.1 mph78%29.86 "HgN/A
10:20 PM70 °FPassing clouds.No wind73%29.86 "HgN/A
9:50 PM70 °FPassing clouds.No wind73%29.86 "HgN/A
9:20 PM70 °FPassing clouds.3 mph73%29.86 "HgN/A
8:50 PM72 °FPassing clouds.3 mph69%29.83 "HgN/A
8:20 PM73 °FPassing clouds.3 mph61%29.83 "HgN/A
7:50 PM73 °FPassing clouds.6 mph57%29.83 "HgN/A
7:20 PM73 °FPassing clouds.6 mph61%29.83 "HgN/A
6:50 PM75 °FBroken clouds.6 mph54%29.83 "HgN/A
6:20 PM75 °FBroken clouds.7 mph50%29.83 "HgN/A
5:50 PM77 °FBroken clouds.7 mph47%29.83 "HgN/A
5:20 PM79 °FBroken clouds.2 mph54%29.83 "HgN/A
4:50 PM79 °FScattered clouds.7 mph51%29.83 "HgN/A
4:20 PM81 °FPassing clouds.7 mph45%29.80 "HgN/A
3:50 PM81 °FPassing clouds.7 mph45%29.80 "HgN/A
3:20 PM82 °FPassing clouds.7 mph35%29.80 "HgN/A
2:50 PM82 °FPassing clouds.8 mph35%29.83 "HgN/A
2:20 PM82 °FPassing clouds.8 mph35%29.83 "HgN/A
1:50 PM82 °FPassing clouds.3 mph28%29.83 "HgN/A
1:20 PM82 °FPassing clouds.2 mph28%29.83 "HgN/A
12:50 PM82 °FPassing clouds.2 mph28%29.83 "HgN/A
12:20 PM82 °FPassing clouds.5 mph32%29.83 "HgN/A
11:50 AM81 °FPassing clouds.3 mph30%29.83 "HgN/A
11:20 AM79 °FPassing clouds.5 mph42%29.86 "HgN/A
10:50 AM79 °FPassing clouds.5 mph39%29.86 "HgN/A
10:20 AM77 °FPartly sunny.5 mph42%29.86 "HgN/A
9:50 AM75 °FPartly sunny.5 mph44%29.83 "HgN/A
9:20 AM73 °FScattered clouds.5 mph50%29.83 "HgN/A
8:50 AM73 °FScattered clouds.7 mph57%29.83 "HgN/A
8:20 AM72 °FScattered clouds.No wind65%29.83 "HgN/A
7:50 AM68 °FScattered clouds.1 mph73%29.83 "HgN/A
7:20 AM66 °FPassing clouds.3 mph78%29.80 "HgN/A
6:20 AM64 °FPassing clouds.3 mph78%29.80 "HgN/A
Weather by CustomWeather, © 2015

See weather overviewHow to use our weather pages